Погода в Красной Заре

Россия / Орловская область     52°47′08″N   37°40′35″E
темп.,
°C
ветер,
м/с
пор.,
м/с
влажн.,
%
обл.,
%
осадки,
мм/ч
давл.,
гПа
погр.,
м
8 мая, сб
сб800:00+8ююв41272100 0.0 1014240
03:00+9ююв51469100 0.0 1013435
06:00+8ююв81693100 3.2 1011653
09:00+8ююв91791100 5.7 1009673
12:00+10ююв81688100 2.3 1007826
15:00+10ю81695100 9.4 10041094
18:00+11ююз81393100 3.6 1003786
21:00+9юз61293100 3.8 1005592
9 мая, вс
вс900:00+7зюз7990100 0.1 1005784
03:00+3зсз81597100 0.9 1009833
06:00+4сз8149198 1.0 1012893
09:00+6сз81079100 1.1 1015991
12:00+9сз8961100 0.1 10171722
15:00+8сз796666 0.1 10191367
18:00+9ссз58635 0.0 10211489
21:00+5сз38785 0.1 1024142
10 мая, пн
пн1000:00+4сз410795 0.0 1025200
03:00+3ссз410810 0.0 1027184
06:00+4ссз410780 0.0 1028237
09:00+9с58593 0.0 1029650
12:00+12ссв79471 0.0 10281500
15:00+13ссв810464 0.0 10271592
18:00+12ссв711600 0.0 10271324
21:00+8с513720 0.0 1028333
11 мая, вт
вт1100:00+7ссв614740 0.0 1027358
03:00+7ссв7166876 0.0 1027489
06:00+7св81764100 0.0 1027528
09:00+10св8156573 0.0 1026607
12:00+14всв91260100 0.0 1025912
15:00+14всв8116991 0.0 1025919
18:00+13всв6117552 0.0 1025769
21:00+11св4118544 0.0 1024281
12 мая, ср
ср1200:00+11всв61486100 0.8 1023621
03:00+9ю0296100 2.4 1023147
06:00+9в359451 0.1 1024217
09:00+12в577391 0.1 1024695
12:00+16в6761100 0.0 10231421
15:00+16всв777093 0.1 10221332
18:00+12св4694100 0.3 1022292
21:00+12всв3898100 0.3 1020312